Simultaneous Nadir Overpasses (SNOs) Predictions

Prediction of SNOs between METOP-B and TERRA Satellite Orbit:

Table of predicted SNOs for the next 14.0 days since TLE Epoch: 6/22/2019
Index Date (METOP-B) Time (METOP-B) Lat,Lon (METOP-B) SZA (METOP-B ) Date (TERRA) Time (TERRA) Lat,Lon (TERRA) SZA (TERRA ) Distance(km) Time Diff (sec)
1 06/22/2019 06:15:26 81.30, 133.09 60.72 06/22/2019 06:16:09 81.30, 133.15 60.74 1.18 43
2 06/22/2019 07:06:05 -81.31, -58.78 119.19 06/22/2019 07:05:35 -81.31, -58.95 119.23 2.93 30
3 06/25/2019 01:49:48 81.31,-160.26 60.77 06/25/2019 01:50:22 81.32,-160.13 60.80 2.46 34
4 06/25/2019 02:40:28 -81.31, 7.49 119.19 06/25/2019 02:39:49 -81.31, 7.43 119.21 1.07 39
5 06/27/2019 21:24:10 81.30, -94.01 60.82 06/27/2019 21:24:35 81.31, -93.83 60.86 3.04 25
6 06/27/2019 22:14:50 -81.31, 73.75 119.13 06/27/2019 22:14:02 -81.30, 73.76 119.15 0.68 48
7 06/30/2019 16:58:32 81.31, -27.38 60.98 06/30/2019 16:58:48 81.32, -27.20 61.01 3.14 16
8 06/30/2019 17:49:12 -81.31, 140.38 118.97 06/30/2019 17:48:15 -81.32, 140.42 118.99 0.77 57
9 07/03/2019 12:32:55 81.31, 38.85 61.14 07/03/2019 12:33:02 81.30, 38.99 61.16 2.50 7




NCC Satellite Simultaneous Nadir Overpasses (SNOs) Prediction Service
